This is the latest recevied weather packets stored in our database for station/object EA5LU-10. If no packets are shown the sender has not sent any weather packets the latest 10 day(s).
| Time | Temp. | Humidity | Pressure | Rain* | Wind** | Luminosity | Snow |
|---|---|---|---|---|---|---|---|
| 1777773131 | 18.33° C | 78% | 1005.7 hPa | - | - | - | - |
| 1777772230 | 18.33° C | 79% | 1005.8 hPa | - | - | - | - |
| 1777771329 | 18.33° C | 79% | 1006.3 hPa | - | - | - | - |
| 1777770428 | 18.33° C | 78% | 1006.5 hPa | - | - | - | - |
| 1777769528 | 18.33° C | 78% | 1006.5 hPa | - | - | - | - |
| 1777768627 | 18.33° C | 79% | 1006.8 hPa | - | - | - | - |
| 1777767726 | 18.33° C | 78% | 1007.2 hPa | - | - | - | - |
| 1777766825 | 18.89° C | 77% | 1007.3 hPa | - | - | - | - |
| 1777765924 | 18.33° C | 78% | 1007.1 hPa | - | - | - | - |
| 1777765023 | 18.33° C | 78% | 1008 hPa | - | - | - | - |
| 1777764123 | 18.33° C | 78% | 1008.2 hPa | - | - | - | - |
| 1777763222 | 18.89° C | 78% | 1008.1 hPa | - | - | - | - |
| 1777762321 | 18.89° C | 79% | 1008 hPa | - | - | - | - |
| 1777761420 | 18.89° C | 78% | 1007.9 hPa | - | - | - | - |
| 1777760519 | 18.89° C | 78% | 1007.7 hPa | - | - | - | - |
| 1777759619 | 19.44° C | 76% | 1007.5 hPa | - | - | - | - |
| 1777758718 | 20° C | 73% | 1007.7 hPa | - | - | - | - |
| 1777757817 | 20° C | 71% | 1007.8 hPa | - | - | - | - |
| 1777756916 | 20° C | 72% | 1008 hPa | - | - | - | - |
| 1777756015 | 20.56° C | 70% | 1007.9 hPa | - | - | - | - |
| 1777755114 | 20.56° C | 70% | 1007.8 hPa | - | - | - | - |
| 1777754214 | 20.56° C | 70% | 1007.8 hPa | - | - | - | - |
| 1777753313 | 20.56° C | 69% | 1007.8 hPa | - | - | - | - |
| 1777752412 | 21.11° C | 69% | 1007.6 hPa | - | - | - | - |
| 1777751511 | 20.56° C | 69% | 1007.5 hPa | - | - | - | - |
* Rain since midnight (hover to see other rain measurements)
** Current wind speed in m/s (hover to see current wind gust speed)